Vorticity
22 17 23 11 9 15 16 18 12 29 9 3 3 13 19 32 41 46 -29 0 -10 36 23 10 20 -10 -1 42 18 17 -11 -1 1 7 5 16 10 -3 2 -26 44 28 -44 20
20 20 13 9 15 22 27 13 4 49 15 -0 -3 -14 10 38 1 -25 19 25 -7 4 25 17 3 9 21 -67 74 17 -8 22 10 55 26 8 11 1 9 -13 39 1 -36 43
18 10 11 11 27 44 20 22 -6 17 23 10 4 -12 33 38 11 41 -2 -17 23 -4 -8 7 42 -10 19 1 35 20 40 8 -26 -51 15 -3 3 19 -2 10 -7 -6 -0 -18
25 16 9 23 19 36 21 7 14 -1 37 5 12 7 -49 35 -25 31 29 36 -53 42 -20 24 -25 42 8 15 -7 38 -0 7 1 -1 -31 39 23 14 13 -8 -16 6 8 -6
16 18 21 20 20 43 21 1 -11 19 12 12 5 11 13 -21 51 20 -8 12 25 17 -3 -40 -18 -23 39 -13 29 35 -13 -34 33 -7 13 -5 -24 28 28 10 9 19 -28 5
18 19 25 13 27 30 12 -7 8 25 -16 45 3 -8 8 -6 -34 -28 31 14 -9 3 5 9 24 17 -22 -9 18 2 35 18 -12 39 7 16 51 -4 -14 37 23 -1 -8 -7
12 30 14 16 24 26 14 11 13 8 7 -13 17 14 27 -9 7 -4 -10 7 60 -2 17 10 -5 23 19 32 -8 12 53 13 -4 21 28 24 47 18 21 -29 12 23 12 6
30 38 19 24 19 20 9 5 37 4 7 7 -8 3 -4 27 43 22 52 21 7 14 21 -10 21 7 29 -0 -28 -9 -30 60 -16 6 -6 1 41 -11 36 16 32 -16 6 22
50 42 30 7 22 27 -0 20 -1 13 15 24 26 22 -4 -14 2 42 -1 10 -21 30 14 27 -21 4 -0 12 25 38 21 26 4 19 16 5 37 35 19 39 18 28 25 23
21 12 24 80 18 28 4 12 14 16 13 -7 -1 -4 20 26 23 1 35 -4 48 -15 24 13 33 14 -2 -14 1 29 22 12 2 -3 13 47 -14 28 34 -19 40 30 6 6
10 3 7 19 22 26 12 2 6 7 6 1 5 11 -14 0 13 10 36 -10 33 10 13 24 -8 13 18 9 12 32 25 -7 33 17 6 10 47 18 -5 28 -4 46 19 32
15 17 -1 13 7 7 6 11 7 6 7 8 26 8 9 10 -3 18 5 -39 22 35 -9 46 46 -6 31 2 -4 -5 -25 -21 -18 17 33 33 35 29 8 41 16 -21 28 -6
32 20 23 8 10 5 4 6 9 7 4 0 -3 8 16 7 11 18 9 11 -4 -17 -4 63 38 12 -11 -8 9 17 46 13 8 8 -22 -31 -39 -14 0 -2 -3 -7 28 -9
23 18 17 8 6 7 9 4 6 10 2 5 -5 20 22 17 6 17 13 12 -1 6 -16 -11 14 21 53 8 -10 15 -2 26 12 22 25 52 15 22 30 26 10 -0 11 13
29 21 12 29 33 14 8 6 5 7 2 4 35 29 10 -3 9 3 1 23 6 9 29 -6 18 25 26 13 46 14 0 11 -1 -12 12 0 12 45 8 2 -11 14 10 5
9 20 16 12 9 19 33 19 14 28 11 6 5 20 13 41 22 11 14 3 19 17 12 30 5 26 27 -10 37 11 5 -14 1 12 15 37 19 12 6 -13 -14 12 2 7
33 15 9 15 18 15 15 11 18 11 -3 10 25 33 29 -6 -24 -13 25 33 23 15 -2 21 -22 55 17 37 20 14 -4 8 18 14 4 14 -25 15 -16 5 17 1 13 14
53 16 7 2 9 16 15 4 4 17 18 14 8 23 20 3 6 25 13 18 19 10 9 24 18 -2 -26 5 48 -8 62 9 22 23 18 33 7 17 -12 11 23 16 2 -1
10 38 30 17 5 5 10 8 1 -29 11 24 11 -12 2 19 23 16 25 28 35 14 45 29 50 14 -11 16 -13 31 13 40 -18 33 -11 9 17 16 15 12 12 -2 14 4
5 1 13 15 48 34 24 28 30 16 24 -1 -18 1 8 13 13 18 4 27 12 5 49 0 -9 1 4 -5 31 3 1 4 37 14 2 11 12 9 9 6 8 11 9 17
19 14 -1 4 6 35 7 17 11 18 16 28 26 3 14 16 14 15 8 18 18 11 41 -3 23 41 26 17 18 13 15 16 9 10 9 21 16 14 10 5 5 10 6 8
9 5 2 8 11 8 9 11 9 14 14 12 23 26 12 15 13 10 20 10 12 11 30 3 14 32 16 31 20 10 11 13 13 7 9 6 9 9 9 6 6 10 22 14
7 12 13 12 9 9 6 9 11 7 12 20 15 16 15 25 10 15 11 11 15 28 4 18 10 31 31 7 8 6 5 3 4 7 8 12 16 18 17 22 19 11 7 6
12 14 12 10 13 12 11 10 5 10 14 30 27 8 15 17 10 14 10 28 -2 7 13 9 37 22 12 14 12 10 8 10 14 21 22 16 13 7 5 5 5 7 9 13
13 16 13 11 13 16 26 19 12 13 3 14 11 13 15 7 11 11 12 7 13 12 19 26 23 19 6 4 6 6 12 27 13 12 16 14 11 9 9 11 15 14 13 11
9 11 14 9 11 18 18 9 8 14 9 8 2 9 9 12 15 11 15 9 14 18 4 18 17 11 24 21 16 10 7 7 14 13 8 8 10 14 15 11 11 10 9 16
12 15 7 14 10 22 12 8 11 14 9 4 6 10 12 13 13 9 11 5 11 14 17 16 13 10 11 8 10 16 15 16 9 8 9 15 16 10 9 10 16 20 15 14
Height
2879 2879 2882 2887 2893 2900 2907 2911 2914 2916 2928 2933 2934 2938 2941 2944 2950 2957 2962 2965 2967 2971 2972 2980 2987 2986 2991 3001 3012 3019 3029 3037 3040 3038 3045 3050 3052 3051 3055 3059 3062 3066 3069 3050
2868 2868 2871 2875 2880 2886 2894 2899 2905 2907 2915 2915 2924 2927 2931 2938 2941 2951 2954 2955 2959 2958 2967 2977 2979 2980 2992 3001 3003 3008 3019 3024 3031 3036 3043 3039 3037 3048 3052 3056 3059 3056 3064 3040
2857 2858 2861 2865 2867 2873 2883 2889 2896 2894 2901 2913 2918 2924 2928 2928 2940 2941 2946 2943 2948 2957 2964 2968 2971 2976 2986 2996 2999 3006 3013 3015 3014 3008 3007 3030 3032 3035 3042 3046 3046 3042 3036 3047
2847 2848 2851 2854 2858 2864 2869 2875 2880 2878 2886 2901 2907 2913 2921 2921 2926 2933 2936 2937 2944 2955 2957 2960 2963 2973 2982 2989 2995 3001 3005 3003 3006 3003 3017 3021 3021 3024 3028 3029 3023 3033 3028 3033
2837 2837 2841 2845 2849 2856 2861 2864 2867 2874 2883 2895 2900 2903 2910 2917 2922 2925 2924 2931 2937 2947 2949 2949 2960 2972 2974 2979 2985 2990 2996 2994 3003 2999 3006 3011 3014 3016 3015 3014 3019 3023 3027 3025
2828 2828 2831 2836 2840 2846 2849 2857 2865 2874 2881 2889 2895 2894 2901 2908 2916 2917 2923 2928 2932 2940 2946 2956 2960 2964 2968 2969 2975 2980 2985 2989 2994 2984 3000 3006 3005 2983 3003 3007 3010 3012 3013 3017
2819 2819 2822 2828 2832 2839 2845 2851 2861 2870 2878 2884 2887 2890 2895 2902 2910 2910 2914 2923 2927 2939 2949 2951 2953 2955 2956 2957 2962 2970 2972 2980 2986 2982 2993 2989 2969 2984 2991 2995 3000 3005 3009 3014
2808 2808 2813 2820 2828 2835 2841 2850 2858 2864 2874 2881 2886 2889 2894 2899 2904 2905 2911 2913 2921 2932 2937 2938 2937 2942 2948 2948 2952 2958 2963 2967 2970 2969 2974 2972 2966 2967 2974 2982 2977 2991 2997 3005
2800 2803 2811 2816 2826 2832 2839 2846 2853 2863 2870 2878 2885 2889 2892 2897 2901 2905 2903 2911 2918 2922 2922 2928 2922 2926 2935 2940 2940 2945 2952 2958 2961 2962 2962 2961 2954 2959 2970 2979 2970 2979 2988 2996
2807 2810 2813 2810 2820 2829 2837 2846 2854 2862 2870 2876 2880 2884 2887 2890 2894 2899 2900 2904 2912 2912 2913 2917 2918 2922 2928 2929 2932 2938 2940 2944 2946 2953 2953 2952 2954 2959 2966 2970 2962 2971 2980 2987
2813 2815 2818 2825 2829 2837 2841 2848 2855 2862 2868 2872 2876 2880 2883 2886 2890 2893 2894 2899 2899 2908 2906 2909 2907 2912 2914 2920 2921 2923 2925 2932 2939 2943 2948 2948 2950 2955 2956 2958 2961 2967 2973 2979
2817 2819 2823 2828 2832 2837 2843 2848 2853 2858 2865 2869 2872 2876 2879 2882 2886 2890 2890 2893 2893 2898 2901 2900 2899 2905 2905 2907 2911 2916 2918 2920 2926 2935 2936 2940 2944 2949 2951 2954 2959 2964 2966 2974
2819 2821 2824 2829 2834 2838 2842 2847 2851 2856 2860 2866 2868 2870 2874 2876 2879 2880 2883 2883 2886 2889 2891 2891 2893 2892 2898 2898 2901 2906 2910 2917 2919 2928 2928 2933 2939 2944 2949 2954 2956 2960 2966 2971
2822 2823 2827 2830 2833 2836 2838 2842 2847 2853 2858 2861 2863 2864 2866 2870 2873 2875 2879 2884 2883 2881 2880 2883 2882 2881 2886 2889 2893 2897 2901 2906 2910 2914 2920 2927 2930 2936 2949 2950 2953 2956 2960 2965
2824 2825 2826 2827 2830 2833 2835 2839 2844 2849 2857 2856 2857 2860 2862 2864 2866 2869 2871 2873 2874 2873 2873 2875 2877 2878 2883 2882 2884 2890 2891 2897 2901 2902 2913 2915 2918 2928 2936 2943 2948 2953 2957 2962
2826 2826 2827 2828 2829 2831 2833 2837 2842 2846 2851 2855 2854 2854 2856 2856 2858 2862 2863 2865 2865 2865 2867 2870 2871 2869 2873 2876 2874 2880 2885 2890 2898 2901 2906 2913 2919 2926 2930 2936 2942 2947 2952 2957
2826 2826 2828 2829 2829 2832 2835 2839 2841 2845 2849 2851 2851 2848 2849 2851 2852 2852 2853 2854 2855 2860 2864 2862 2864 2866 2866 2865 2868 2876 2881 2882 2888 2897 2900 2905 2908 2915 2924 2930 2934 2940 2946 2951
2828 2827 2828 2829 2830 2833 2834 2837 2840 2842 2845 2847 2847 2843 2844 2845 2843 2841 2840 2841 2843 2845 2849 2851 2853 2858 2858 2857 2863 2869 2873 2875 2880 2888 2891 2898 2904 2911 2917 2923 2925 2930 2937 2943
2832 2828 2828 2829 2830 2831 2833 2835 2837 2839 2841 2839 2839 2840 2841 2838 2837 2836 2835 2836 2838 2841 2840 2841 2846 2847 2850 2858 2863 2866 2870 2870 2878 2885 2887 2892 2897 2905 2910 2916 2922 2928 2930 2935
2834 2832 2830 2829 2828 2829 2831 2833 2834 2835 2835 2835 2833 2833 2833 2834 2832 2830 2831 2829 2832 2835 2835 2839 2839 2844 2849 2854 2859 2866 2866 2866 2873 2881 2883 2886 2893 2898 2904 2911 2917 2922 2927 2929
2835 2834 2833 2832 2829 2829 2830 2831 2831 2831 2831 2828 2825 2826 2827 2827 2827 2827 2827 2825 2826 2825 2827 2831 2832 2832 2836 2849 2857 2860 2860 2860 2870 2878 2883 2887 2892 2895 2900 2905 2911 2914 2919 2923
2836 2835 2833 2832 2832 2831 2830 2829 2829 2828 2827 2825 2823 2823 2823 2822 2822 2823 2822 2822 2825 2824 2827 2830 2832 2836 2842 2846 2851 2854 2859 2862 2867 2875 2881 2884 2888 2891 2896 2901 2904 2909 2913 2917
2835 2835 2833 2832 2832 2830 2829 2828 2827 2826 2825 2823 2822 2823 2823 2823 2824 2821 2819 2817 2822 2825 2826 2829 2830 2833 2839 2844 2846 2853 2858 2861 2867 2872 2877 2882 2887 2891 2893 2895 2899 2903 2907 2911
2834 2833 2831 2830 2828 2827 2826 2826 2825 2825 2824 2822 2823 2824 2823 2823 2822 2821 2820 2826 2828 2830 2829 2831 2831 2834 2840 2844 2847 2853 2857 2861 2865 2869 2874 2880 2884 2888 2890 2890 2894 2898 2902 2906
2831 2830 2828 2827 2825 2824 2823 2823 2824 2824 2824 2824 2824 2824 2824 2824 2825 2825 2827 2829 2830 2830 2831 2831 2831 2833 2838 2843 2848 2855 2858 2859 2861 2866 2872 2877 2881 2884 2886 2888 2891 2893 2897 2901
2829 2827 2826 2825 2824 2823 2822 2823 2823 2824 2825 2825 2826 2826 2826 2826 2826 2826 2826 2827 2829 2831 2830 2831 2835 2839 2842 2846 2850 2854 2856 2858 2862 2866 2870 2874 2877 2879 2882 2885 2888 2890 2891 2895
2825 2824 2824 2824 2823 2823 2823 2824 2825 2825 2826 2827 2828 2828 2828 2828 2828 2829 2829 2830 2831 2832 2833 2834 2836 2838 2841 2845 2847 2848 2852 2856 2860 2863 2866 2870 2872 2874 2877 2880 2884 2884 2886 2889